CST,Max TemperatureF,Mean TemperatureF,Min TemperatureF,Max Dew PointF,MeanDew PointF,Min DewpointF,Max Humidity, Mean Humidity, Min Humidity, Max Sea Level PressureIn, Mean Sea Level PressureIn, Min Sea Level PressureIn, Max VisibilityMiles, Mean VisibilityMiles, Min VisibilityMiles, Max Wind SpeedMPH, Mean Wind SpeedMPH, Max Gust SpeedMPH,PrecipitationIn, CloudCover, Events, WindDirDegrees
2011-11-1,71,54,37,45,36,28,81,54,35,29.95,29.89,29.83,10,10,10,17,10,23,0.00,0,,169
2011-11-2,50,44,39,37,36,32,93,75,50,30.20,30.09,29.96,10,9,4,28,14,36,0.30,8,Rain,348
2011-11-3,50,41,30,34,32,28,93,72,47,30.28,30.23,30.13,10,10,10,21,13,24,0.00,1,,341
2011-11-4,55,40,24,34,30,23,100,74,41,30.28,30.21,30.08,10,10,7,15,5,20,0.00,0,,127
2011-11-5,57,47,37,45,40,32,93,77,59,30.06,29.91,29.72,10,9,5,23,13,29,0.00,0,,136
2011-11-6,55,50,42,45,38,30,82,62,38,29.99,29.80,29.65,10,10,10,28,19,37,0.00,0,,204
2011-11-7,60,44,28,39,29,25,93,62,27,30.22,30.16,30.09,10,10,5,13,4,18,0.13,1,Rain,69
2011-11-8,44,40,37,41,39,36,93,86,76,30.11,30.06,30.03,10,8,3,21,13,30,0.57,8,Rain,19
2011-11-9,51,42,33,36,31,23,100,69,38,30.16,30.07,30.00,10,9,3,25,15,32,0.14,3,Rain,307
2011-11-10,42,36,30,27,25,21,86,67,42,30.20,30.15,30.08,10,10,10,21,14,26,0.00,0,,272
2011-11-11,59,44,30,39,29,23,87,69,36,30.01,29.79,29.69,10,10,10,13,8,,0.00,0,,172
2011-11-12,53,42,32,39,35,30,100,74,54,29.69,29.55,29.38,10,10,10,20,8,28,0.00,0,,160
2011-11-13,55,46,37,37,35,30,93,65,41,29.60,29.39,29.23,10,10,10,28,12,33,0.00,0,,221
2011-11-14,60,48,37,36,32,23,81,57,23,29.68,29.59,29.52,10,10,10,22,9,28,0.00,2,,206
2011-11-15,55,44,33,34,28,21,87,54,29,30.00,29.75,29.57,10,10,10,18,11,24,0.00,0,,278
2011-11-16,44,32,19,19,14,1,80,53,17,30.25,30.16,30.03,10,10,10,15,7,25,0.00,0,,287
2011-11-17,46,32,19,23,16,12,80,55,25,30.26,30.17,29.98,10,10,10,18,10,22,0.00,0,,217
2011-11-18,55,45,35,32,29,27,81,58,38,29.90,29.75,29.65,10,10,10,29,18,39,0.00,0,,181
2011-11-19,53,42,30,41,33,25,93,78,62,30.05,29.70,29.54,10,10,10,23,9,33,0.00,6,,359
2011-11-20,35,28,21,23,21,18,86,73,56,30.33,30.27,30.15,10,10,10,14,9,20,0.00,3,,357
2011-11-21,41,30,19,35,28,18,93,87,77,30.27,30.21,30.11,10,8,4,9,3,,0.00,6,,57
2011-11-22,46,42,38,39,38,34,95,85,74,30.13,30.06,29.99,10,4,1,9,5,,0.00,8,,11
2011-11-23,50,42,33,39,37,32,94,80,65,30.18,30.14,30.12,7,5,3,14,7,23,0.00,4,,194
2011-11-24,69,50,32,43,38,32,98,69,33,30.10,29.96,29.85,10,7,1,24,12,29,0.00,0,,174
2011-11-25,55,49,44,48,44,40,88,78,65,29.82,29.75,29.68,10,8,7,21,15,28,0.00,5,,190
2011-11-26,54,46,37,51,37,28,91,79,68,30.11,29.91,29.69,10,9,3,31,15,39,0.05,8,Rain,306
2011-11-27,37,30,23,28,26,21,90,73,66,30.22,30.19,30.10,10,10,10,26,18,34,0.00,7,,343
2011-11-28,38,27,16,28,23,14,94,83,63,30.19,30.13,30.07,10,10,7,10,4,,0.00,2,,236
2011-11-29,44,32,21,31,19,0,85,58,17,30.29,30.22,30.14,10,10,10,23,16,30,0.00,0,,343
2011-11-30,51,34,16,19,13,5,81,48,19,30.16,30.02,29.92,10,10,10,21,9,24,0.00,0,,182